Volver al catálogo

ELECTRON KICK STAGE R/B

ActivoVLEO
NORAD 55908·ROCKET BODY·🇺🇸 United States

Lanzado Mar 16, 2023 desde Wallops Flight Facility

Loading…

Próximos Pases (próximas 24 horas)

TLE

ActualizadoSource: Space-Track

Época: Sep 14, 2026, 14:16 UTC

1 55908U 23035A   26257.59513580  .00005278  00000-0  31874-3 0  9996
2 55908  44.1762   8.4411 0002150 322.0044  38.0669 15.11674341191897

Sigue ELECTRON KICK STAGE R/B en tiempo real con AllMySat

Download on the App Store